Tracking 19192 objects as of 18-Jun-2018
HD Live streaming from Space Station
objects crossing your sky now

FENGYUN 1C DEB

Track FENGYUN 1C DEB now!
10-day predictions


NORAD ID: 36278
Int'l Code: 1999-025DXF
Perigee: 806.8 km
Apogee: 900.8 km
Inclination: 99.2 °
Period: 101.9 minutes
Semi major axis: 7224 km
RCS: 0.0111 m2 (small)
Launch date: May 10, 1999
Source: People's Republic of China (PRC)
Launch site: Taiyaun Space Center, China (TSC)

Note: This is SATELLITE DEBRIS
aabbcc
Your satellite tracking list
Your tracking list is empty




NASA's NSSDC Master Catalog

Two Line Element Set (TLE):
1 36278U 99025DXF 18169.22148426  .00000048  00000-0  49170-4 0  9992
2 36278  99.2402 323.0812 0065071  62.2698 298.5053 14.13713997550181
Source of the keplerian elements: AFSPC